Lid_Strength_Index
3 5 8 10 12 13 15 12 10 10 11 9 9 8 8 8 10 11 3 1 0 0 -0 -1 -1 -1 -1 -1 -1 -1 -1 -0 -0 -0 -0 -0 0 0 1 0 0 -0 -0 -0 -1 0 1 1 1
3 5 9 11 14 16 15 11 11 10 9 9 8 7 8 10 6 5 3 1 0 -0 -0 -0 -1 -1 -1 -2 -1 -1 -1 -0 -0 0 0 0 0 1 0 0 0 0 0 0 1 -0 0 0 0
7 7 11 12 14 15 14 11 12 11 9 9 9 7 7 8 5 4 1 0 0 0 -0 -0 -1 -2 -1 -1 -1 -1 -0 0 0 0 0 0 1 1 1 1 1 1 1 0 0 1 1 1 1
9 11 12 14 14 12 11 11 11 11 10 9 9 9 6 4 4 2 1 0 1 0 -0 -1 -1 -1 -1 -1 -1 -0 0 0 1 0 0 1 1 1 1 1 1 1 1 1 1 2 1 1 1
11 13 15 16 14 11 10 10 10 11 12 10 10 9 8 4 2 1 1 1 1 1 -0 -0 -1 -1 -1 -1 -1 0 0 0 1 1 1 1 1 1 1 1 1 1 1 1 1 1 1 1 1
13 13 17 17 15 11 10 11 12 12 12 12 9 8 8 3 3 2 1 1 1 1 0 0 -0 -1 -2 -1 -0 0 1 0 1 2 2 1 1 2 1 2 1 1 0 1 1 1 1 1 1
14 15 17 17 15 13 11 11 13 12 12 12 9 10 8 5 3 2 2 1 1 0 0 -0 -0 -0 -1 -1 -0 0 1 1 1 2 2 2 2 2 2 2 2 1 -0 1 1 1 1 1 1
13 14 17 16 16 14 12 11 11 11 11 10 8 10 9 5 3 2 2 2 1 1 0 0 1 1 1 2 1 1 1 1 2 2 2 2 3 3 3 3 2 2 1 1 2 1 1 1 1
13 17 18 16 15 14 12 12 10 10 11 8 6 6 5 3 3 3 2 2 2 1 1 2 2 2 3 3 4 3 2 2 2 2 3 4 5 6 6 4 3 2 1 1 1 2 2 2 2
14 17 16 13 13 14 13 14 13 12 12 11 8 5 4 3 3 4 4 4 3 2 1 2 2 3 4 3 5 5 5 6 7 7 6 5 6 6 6 6 4 3 2 1 2 2 3 3 4
14 16 14 13 12 12 12 12 12 14 13 11 9 6 5 5 4 4 4 3 3 2 1 2 2 3 4 5 7 7 8 8 7 7 6 6 6 6 6 6 6 6 4 5 4 5 5 5 5
14 12 12 11 11 12 13 12 13 13 12 10 10 5 5 5 5 4 4 3 3 2 1 1 1 3 4 5 7 8 8 8 8 7 6 6 7 7 7 6 6 6 5 5 5 6 6 5 5
14 13 11 11 11 12 12 13 12 13 12 11 9 5 5 5 4 4 4 3 2 2 2 1 1 2 4 5 7 8 8 8 8 7 6 6 6 7 6 6 6 7 5 5 6 6 6 5 4
11 11 12 12 12 12 13 12 13 12 12 11 11 6 5 5 4 4 4 3 3 2 2 1 1 3 4 5 7 8 8 8 8 8 7 6 6 6 6 6 6 6 5 5 6 6 6 6 5
11 14 14 13 12 12 12 13 15 11 11 11 11 12 5 5 4 4 3 3 3 2 1 1 1 2 4 5 7 8 8 8 8 8 6 6 6 6 6 6 6 6 5 5 5 5 5 5 4
14 16 20 14 13 12 13 16 12 11 13 12 11 12 10 5 4 4 3 3 2 2 2 1 1 2 3 5 7 8 8 9 8 8 7 6 6 6 6 6 6 6 5 5 6 5 5 5 4
16 20 19 17 13 13 14 17 13 11 13 13 12 12 13 10 5 4 3 2 2 2 2 2 1 2 3 6 7 8 8 9 8 8 7 6 6 5 6 6 6 6 6 5 5 6 6 5 4
20 20 18 17 14 13 14 15 13 12 11 13 12 12 13 12 11 4 3 2 2 2 2 2 1 2 3 5 7 8 8 8 8 7 7 6 6 5 6 6 6 6 6 5 5 5 5 3 3
19 19 20 17 14 15 15 15 13 12 12 12 12 13 13 13 11 8 3 2 2 2 2 2 2 2 3 5 7 8 8 9 9 8 6 6 6 5 6 6 6 6 6 5 4 4 4 3 3
19 21 21 17 14 15 16 17 14 13 12 11 12 11 10 12 13 12 5 3 3 3 2 2 2 3 3 5 6 7 8 9 9 8 7 6 6 5 6 6 6 6 6 5 5 5 5 4 3
18 19 20 20 17 16 16 18 16 13 12 11 11 10 10 11 11 13 10 4 3 3 3 2 2 3 3 5 6 8 8 8 9 8 8 7 6 6 6 6 6 6 5 5 5 5 5 6 5
19 17 17 18 20 23 16 22 18 15 14 12 12 11 11 12 11 11 12 5 4 3 2 2 2 3 3 5 6 7 7 8 8 8 8 7 6 6 6 6 6 6 5 5 5 4 5 5 6
17 15 16 17 19 19 20 21 20 15 15 13 12 12 12 12 12 11 12 9 3 3 2 2 2 2 3 5 5 6 7 8 8 9 8 7 7 6 6 6 6 6 5 5 4 4 5 5 6
15 17 17 17 18 23 20 19 21 18 16 13 12 11 11 10 10 9 8 10 5 3 2 2 2 2 2 4 4 6 7 8 9 8 8 7 6 7 6 6 6 6 5 4 4 4 4 5 5
17 20 28 30 25 25 18 19 20 15 13 13 12 12 11 10 10 10 10 11 8 3 3 2 2 3 2 4 4 5 6 7 8 8 8 7 7 7 6 6 6 6 5 4 4 4 4 5 5
17 16 20 26 25 22 15 20 19 13 12 11 11 10 10 11 11 10 9 10 9 4 3 3 3 3 2 3 4 4 5 7 7 7 7 7 6 6 6 6 6 5 5 4 4 4 4 5 5
15 16 12 16 17 19 18 17 15 13 12 11 11 10 12 11 10 10 9 9 9 7 3 3 3 3 2 3 3 4 5 6 6 7 7 7 6 6 6 6 6 5 5 4 4 4 5 5 5
11 10 16 15 21 22 18 17 17 14 13 11 11 10 9 9 11 10 10 10 9 9 4 3 2 3 2 2 3 4 5 5 6 7 7 7 6 6 6 6 6 5 5 4 4 4 5 5 5
14 14 13 14 16 20 21 17 12 12 12 11 11 11 11 11 12 12 11 11 10 9 5 3 3 3 2 2 3 4 5 6 6 6 7 7 6 6 6 6 6 5 5 4 4 5 5 5 5
11 14 13 17 18 17 17 18 10 10 10 10 10 9 10 10 10 11 11 11 11 10 8 3 3 3 2 2 3 4 5 6 6 7 7 6 6 6 6 6 6 5 4 4 4 4 4 5 5